Back to catalog

BEIJING-3C 04

AliveScienceSSO
NORAD 59808·PAYLOAD·🇨🇳 China
This satellite name has not been confirmed by official sources yet.

Launched May 20, 2024 from Taiyuan Satellite Launch Center

Loading…

Next Passes (next 24 hours)

TLE

FreshSource: Space-Track

Epoch: Sep 14, 2026, 15:23 UTC

1 59808U 24094D   26257.64116668  .00004196  00000-0  21570-3 0  9997
2 59808  97.3760 325.8585 0003316   9.2208 350.9086 15.16992528128712

Track BEIJING-3C 04 in real time with AllMySat

Download on the App Store